User: anonymous   Login
Location: Unspecified
(0.0000°N, 0.0000°E)
Time: 10:53:21
(UTC+00:00)
Language:

STARLINK-34417 - Orbit

View from above orbital plane
View from above orbital plane
View from above satellite
View from above satellite

Ground track
Ground track

The orbit is defined by the following mean orbital elements,

1 64617U          26145.49223198 +.00000000 +00000-0 +70214-3 0 00000
2 64617  53.1605 325.4938 0001615  91.5019 268.6168 15.34407422    07
Epoch (UTC): 25 May 2026 11:48:48
Eccentricity: 0.0001615
inclination: 53.1605°
perigee height: 462 km
apogee height: 464 km
right ascension of ascending node: 325.4938°
argument of perigee: 91.5019°
revolutions per day: 15.34407422
mean anomaly at epoch: 268.6168°

The dashed part of the orbit path shows where the satellite is in the earth's shadow,  

DLR